Chicago Midway, IL

8:07 AM CDT on April 25, 2018 (GMT -0500)
Chicago-Midway

Weather History for KMDW - March, 2012

Change the Weather History Date:

Tuesday, March 6, 2012

  Actual Average Record
Temperature  
Mean Temperature 50 °F 35 °F  
Max Temperature 68 °F 43 °F 71 °F (1983)
Min Temperature 32 °F 28 °F 2 °F (1960)
Degree Days  
Heating Degree Days 15 30  
Month to date heating degree days 172 185  
Since 1 July heating degree days 4696  
Cooling Degree Days 0 0  
Month to date cooling degree days 0 0  
Year to date cooling degree days 0 0  
Moisture  
Dew Point 30 °F    
Average Humidity 46    
Maximum Humidity 69    
Minimum Humidity 27    
Precipitation  
Precipitation 0.00 in 0.08 in 0.49 in (1983)
Month to date precipitation 0.19 0.51  
Year to date precipitation 2.36 4.51  
Sea Level Pressure  
Sea Level Pressure 30.03 in    
Wind  
Wind Speed 19 mph (South)    
Max Wind Speed 32 mph    
Max Gust Speed 45 mph    
Visibility 10 miles    
Events      
T = Trace of Precipitation, MM = Missing Value Source: NWS Daily Summary

Daily Weather History Graph

Daily Weather History Graph

Search for Another Location

Airport or City:

Astronomy

Mar. 06, 2012 Rise Set
Actual Time 6:17 AM CST 5:47 PM CST
Civil Twilight 5:49 AM CST 6:15 PM CST
Nautical Twilight 5:17 AM CST 6:47 PM CST
Astronomical Twilight 4:44 AM CST 7:20 PM CST
Moon 4:13 PM CST (3/6) 4:53 AM CST (3/6)
Length of Visible Light 12h 26m
Length of Day
11h 30m
Waxing Gibbous, 96% of the Moon is Illuminated
Mar 6
Waxing Gibbous
Mar 8
Full
Mar 14
Last Quarter
Mar 22
New
Mar 30
First Quarter

Hourly Weather History & Observations

Time (CST) Temp. Windchill Dew Point Humidity Pressure Visibility Wind Dir Wind Speed Gust Speed Precip Events Conditions
12:51 AM 32.0 °F 22.1 °F 23.0 °F 69% 30.26 in 10.0 mi South 13.8 mph 19.6 mph N/A   Clear
1:51 AM 32.0 °F 22.5 °F 23.0 °F 69% 30.23 in 10.0 mi South 12.7 mph - N/A   Clear
2:51 AM 33.1 °F 23.9 °F 21.9 °F 64% 30.21 in 10.0 mi South 12.7 mph - N/A   Clear
3:51 AM 33.8 °F 25.3 °F 21.2 °F 60% 30.16 in 10.0 mi South 11.5 mph - N/A   Clear
4:51 AM 33.1 °F 23.4 °F 21.9 °F 64% 30.17 in 10.0 mi South 13.8 mph 21.9 mph N/A   Mostly Cloudy
5:51 AM 34.0 °F 24.2 °F 21.9 °F 61% 30.15 in 10.0 mi South 15.0 mph 21.9 mph N/A   Mostly Cloudy
6:51 AM 36.0 °F 26.3 °F 21.9 °F 57% 30.12 in 10.0 mi South 16.1 mph 27.6 mph N/A   Scattered Clouds
7:51 AM 37.9 °F 28.5 °F 23.0 °F 55% 30.11 in 10.0 mi South 17.3 mph 26.5 mph N/A   Partly Cloudy
8:51 AM 44.1 °F 35.7 °F 24.1 °F 45% 30.09 in 10.0 mi South 20.7 mph 29.9 mph N/A   Clear
9:51 AM 48.9 °F - 27.0 °F 43% 30.07 in 10.0 mi South 19.6 mph 24.2 mph N/A   Clear
10:51 AM 54.0 °F - 30.0 °F 40% 30.03 in 10.0 mi SSW 20.7 mph 32.2 mph N/A   Clear
11:51 AM 60.1 °F - 34.0 °F 38% 29.99 in 10.0 mi SSW 19.6 mph 32.2 mph N/A   Clear
12:51 PM 64.0 °F - 36.0 °F 35% 29.94 in 10.0 mi South 20.7 mph 33.4 mph N/A   Clear
1:51 PM 66.9 °F - 36.0 °F 32% 29.91 in 10.0 mi SSW 26.5 mph 39.1 mph N/A   Clear
2:51 PM 68.0 °F - 35.1 °F 30% 29.89 in 10.0 mi SSW 31.1 mph 41.4 mph N/A   Partly Cloudy
3:51 PM 68.0 °F - 33.1 °F 27% 29.89 in 10.0 mi SSW 24.2 mph 41.4 mph N/A   Partly Cloudy
4:51 PM 66.0 °F - 33.1 °F 29% 29.89 in 10.0 mi SSW 24.2 mph 41.4 mph N/A   Partly Cloudy
5:51 PM 64.0 °F - 34.0 °F 33% 29.90 in 10.0 mi SSW 26.5 mph 39.1 mph N/A   Scattered Clouds
6:51 PM 62.6 °F - 35.6 °F 37% 29.90 in 10.0 mi South 20.7 mph 32.2 mph N/A   Mostly Cloudy
7:51 PM 61.0 °F - 35.1 °F 38% 29.93 in 10.0 mi South 20.7 mph 29.9 mph N/A   Mostly Cloudy
8:51 PM 60.1 °F - 36.0 °F 41% 29.95 in 10.0 mi South 21.9 mph 32.2 mph N/A   Mostly Cloudy
9:51 PM 57.9 °F - 36.0 °F 44% 29.96 in 10.0 mi South 17.3 mph 33.4 mph N/A   Mostly Cloudy
10:51 PM 57.2 °F - 35.6 °F 44% 29.97 in 10.0 mi SSW 20.7 mph 31.1 mph N/A   Mostly Cloudy
11:51 PM 57.0 °F - 34.0 °F 42% 29.97 in 10.0 mi SSW 17.3 mph 32.2 mph N/A   Scattered Clouds